CZ-4B DEB, 40531

Orbit data source: Space-Track

CZ-4B DEB, 40531 is space debris in LEO originally from a launch on Fri, 25 Oct 2013 UTC launched from the Jiuquan Satellite Launch Center, China (JSC). Debris objects in space refer to the collection of defunct objects orbiting the Earth. Examples of debris include non-operational satellites, rocket bodies, and fragments generated from explosions, collisions, or faulty payload assembly.

Loading next visibility...
Identifier
40531, 2013-057D
Orbit
LEO
Country
Flag of CNCN / PRC
Related business
Manufacturer
SAST
Mission
Spacecraft
Bus & Motor
Unknown
Mass
Unknown
Launch date (UTC)
2013-10-25 (13 years ago)
Launch vehicle
Unknown
Launch site
Jiuquan Satellite Launch Center, China (JSC)
Object type
Payload
Rocket body
Debris
Shape & HBR
Unknown shape, 0.1 m
Radar Cross Section
Small (<0.1 m²)

Expand to show TLE details & history
Last TLE update: 3 days ago

TLE from 3 days ago
0 CZ-4B DEB
1 40531U 13057D   26170.15111803  .00002054  00000-0  35991-3 0  9996
2 40531  74.9677 230.1312 0180601 243.3879 114.8691 14.58198544592105
Epoch: 2026-06-19T03:37Z
TLE epoch observation values (Epoch: 2026-06-19T03:37:36.597Z)
Latitude
-0.00008°
Longitude
-91.65552°
Altitude
757.326 km
Speed
7.447 km/s
True Right ascension
15h 20m 31s
True Declination
0° 00' 00"
Sunlit
Object was in full shadow at epoch
Visualization orbit readout
Latitude
Unknown
Longitude
Unknown
Altitude
Unknown
Speed
Unknown
Apparent Right ascension
Unknown
Apparent Declination
Unknown
Sunlit
N/A
Visualization observer readout
Local Sidereal Time
02:13:12
Azimuth
Unknown
Elevation
Unknown
Doppler factor
Unknown
Orbital elements
Apogee altitude
824.286 km
Perigee altitude
568.748 km
Semi-major axis
7,074.654 km
Eccentricity
0.01806
Inclination
74.9677°
RAAN
230.1312°
Arg. of periapsis
243.3879°
True anomaly
116.72874°
Mean anomaly
114.8691°
Eccentric anomaly
115.80071°
Mean motion
3.64742 °/min
Orbital period
98.7 mins
BSTAR
0.00035991
Loading maneuver chart data...
Computing Atmospheric mass density...
Loading historical data...
Loading historical data...
Loading historical data...
Loading historical data...
Loading historical data...
Loading historical data...
Loading historical data...
Other satellites on launch #57 in the year 2013 (2013-10-25 UTC)

Documentation

Showing up to 5 results
|